CW9804 Weather Reports


time (UTC)temp
C
wind
direction
speed
KPH
gust
KPH
rain 1hr
cm
rain 24hr
cm
rain mn
cm
humidity
%
barometer
mb
20260507164913 20 231 12.9 19.3 0.00 0.00 0.00 61 1012.8
20260507163413 20 166 8.0 14.5 0.00 0.00 0.00 60 1012.8
20260507161913 20 178 6.4 16.1 0.00 0.00 0.00 59 1012.7
20260507160413 21 133 4.8 14.5 0.00 0.00 0.00 58 1012.8
20260507154913 21 231 4.8 16.1 0.00 0.00 0.00 57 1012.4
20260507153413 21 165 4.8 17.7 0.00 0.00 0.00 56 1012.4
20260507151913 21 250 9.7 16.1 0.00 0.00 0.00 57 1012.3
20260507150413 21 279 4.8 20.9 0.00 0.00 0.00 57 1012.3
20260507144912 21 225 6.4 12.9 0.00 0.00 0.00 59 1012.3
20260507143412 21 143 3.2 17.7 0.00 0.00 0.00 58 1012.4
20260507141912 21 271 8.0 17.7 0.00 0.00 0.00 57 1012.3
20260507140412 21 218 8.0 17.7 0.00 0.00 0.00 57 1012.4
20260507134912 21 285 8.0 19.3 0.00 0.00 0.00 58 1012.6
20260507133412 21 243 9.7 16.1 0.00 0.00 0.00 59 1012.7
20260507131912 20 247 8.0 16.1 0.00 0.00 0.00 61 1012.8
20260507130412 19 184 6.4 12.9 0.00 0.00 0.00 64 1012.9
20260507124911 19 222 9.7 14.5 0.00 0.00 0.00 63 1012.9
20260507120411 20 213 8.0 16.1 0.00 0.00 0.00 61 1013.4
20260507114911 20 213 4.8 14.5 0.00 0.00 0.00 61 1013.3
20260507113411 20 236 9.7 16.1 0.00 0.00 0.00 57 1013.3
20260507111910 20 232 1.6 14.5 0.00 0.00 0.00 52 1013.4
20260507110410 21 21 1.6 9.7 0.00 0.00 0.00 55 1013.4
20260507104913 20 322 4.8 8.0 0.00 0.00 0.00 60 1013.5
20260507103413 19 45 3.2 6.4 0.00 0.00 0.00 61 1013.6
20260507101912 19 197 6.4 11.3 0.00 0.00 0.00 60 1013.9
20260507100412 18 313 3.2 8.0 0.00 0.00 0.00 62 1014.1
20260507094912 18 273 3.2 12.9 0.00 0.00 0.00 62 1014.4
20260507093412 18 290 8.0 14.5 0.00 0.00 0.00 64 1014.5
20260507091912 17 5 3.2 8.0 0.00 0.00 0.00 70 1014.5
20260507090412 17 83 1.6 6.4 0.00 0.00 0.00 69 1014.4
20260507084912 16 165 1.6 4.8 0.00 0.00 0.00 75 1014.4
20260507083412 16 31 0.0 4.8 0.00 0.00 0.00 73 1014.3
20260507081912 16 78 1.6 6.4 0.00 0.00 0.00 76 1014.2
20260507080411 16 68 4.8 6.4 0.00 0.00 0.00 77 1014.2
20260507074911 15 93 4.8 9.7 0.00 0.00 0.00 79 1014.1
20260507073411 15 58 4.8 8.0 0.00 0.00 0.00 80 1013.9
20260507071911 14 77 1.6 9.7 0.00 0.00 0.00 80 1013.7
20260507070411 14 65 8.0 12.9 0.00 0.00 0.00 80 1013.9
20260507064911 14 236 1.6 4.8 0.00 0.00 0.00 81 1013.6
20260507063411 14 44 1.6 3.2 0.00 0.00 0.00 80 1013.4
20260507061911 15 320 0.0 9.7 0.00 0.00 0.00 77 1013.3
20260507060411 15 213 9.7 12.9 0.00 0.00 0.00 75 1013.3
20260507054910 15 268 4.8 16.1 0.00 0.00 0.00 75 1013.3
20260507053410 15 250 8.0 17.7 0.00 0.00 0.00 76 1013.1
20260507051910 15 192 11.3 17.7 0.00 0.00 0.00 75 1012.9
20260507050415 15 250 8.0 16.1 0.00 0.00 0.00 75 1012.8
20260507044915 14 226 9.7 19.3 0.00 0.00 0.00 75 1012.7
20260507043415 14 272 8.0 14.5 0.00 0.00 0.00 76 1012.6
20260507041915 14 252 8.0 17.7 0.00 0.00 0.00 77 1012.5
20260507040414 14 254 8.0 17.7 0.00 0.00 0.00 78 1012.5
20260507034914 14 229 11.3 20.9 0.00 0.00 0.00 78 1012.4
20260507033414 14 263 4.8 11.3 0.00 0.00 0.00 78 1012.4
20260507031914 14 259 8.0 12.9 0.00 0.00 0.00 78 1012.3
20260507030414 14 237 6.4 12.9 0.00 0.00 0.00 78 1012.4
20260507024914 13 258 6.4 14.5 0.00 0.00 0.00 79 1012.1
20260507023413 13 244 9.7 12.9 0.00 0.00 0.00 79 1012.0
20260507021913 13 215 6.4 12.9 0.00 0.00 0.00 79 1012.1
20260507020413 13 275 4.8 9.7 0.00 0.00 0.00 78 1012.1
20260507014913 13 254 4.8 9.7 0.00 0.00 0.00 78 1012.2
20260507013413 13 238 3.2 8.0 0.00 0.00 0.00 77 1011.9
20260507011913 13 267 4.8 9.7 0.00 0.00 0.00 76 1012.0
20260507010413 13 269 6.4 11.3 0.00 0.00 0.00 75 1012.0
20260507004912 14 265 4.8 12.9 0.00 0.00 0.00 75 1012.2
20260507003412 14 281 6.4 12.9 0.00 0.00 0.00 74 1012.3
20260507001912 14 254 3.2 12.9 0.00 0.00 0.00 73 1012.2
20260507000413 15 270 6.4 17.7 0.00 0.00 0.00 73 1012.3
20260506234912 15 265 4.8 16.1 0.00 0.00 0.00 73 1012.0
20260506231912 15 240 11.3 25.7 0.00 0.00 0.00 74 1012.3
20260506230412 15 259 11.3 20.9 0.00 0.00 0.00 75 1012.5
20260506224912 15 271 11.3 19.3 0.00 0.00 0.00 75 1012.4
20260506223412 15 229 6.4 14.5 0.00 0.00 0.00 76 1012.2
20260506220411 15 242 6.4 14.5 0.00 0.00 0.00 77 1012.2
20260506214915 15 229 6.4 16.1 0.00 0.00 0.00 77 1012.1
20260506213415 15 221 11.3 19.3 0.00 0.00 0.00 78 1011.9
20260506211914 15 269 6.4 14.5 0.00 0.00 0.00 77 1011.9
20260506210414 15 288 4.8 11.3 0.00 0.00 0.00 76 1011.8
20260506204914 15 310 3.2 11.3 0.00 0.00 0.00 75 1011.7
20260506203414 16 272 3.2 11.3 0.00 0.00 0.00 74 1011.5
20260506201914 16 305 4.8 14.5 0.00 0.00 0.00 74 1011.4
20260506200413 16 265 4.8 9.7 0.00 0.00 0.00 75 1011.3
20260506193413 16 258 4.8 11.3 0.00 0.00 0.00 75 1011.1
20260506191913 16 225 4.8 17.7 0.00 0.00 0.00 77 1011.0
20260506190413 15 155 4.8 9.7 0.00 0.00 0.00 82 1010.7
20260506184913 15 186 3.2 4.8 0.00 0.00 0.00 83 1010.7
20260506183413 15 310 0.0 3.2 0.00 0.00 0.00 82 1010.7
20260506181913 15 311 0.0 3.2 0.00 0.00 0.00 82 1010.5
20260506180413 16 76 0.0 1.6 0.00 0.00 0.00 81 1010.6
20260506174912 16 300 3.2 3.2 0.00 0.00 0.00 80 1010.6
20260506173412 16 300 0.0 4.8 0.00 0.00 0.00 80 1010.5
20260506171912 16 298 3.2 6.4 0.00 0.00 0.00 78 1010.5
20260506170412 16 284 3.2 4.8 0.00 0.00 0.00 78 1010.5